Regional Weather Roundup
Issued by NWS Newport/Morehead, NC

Current Version | Previous Version | Text Only | Print | Product List | Glossary On
Versions: 1 2 3 4 5 6 7 8 9 10 11 12 13 14 15 16 17 18 19 20 21 22 23 24 25 26 27 28 29 30 31 32 33 34 35 36 37 38 39 40 41 42 43 44 45 46 47 48 49 50
080 ASUS42 KMHX 140526 RWRMHX WEATHER ROUNDUP FOR EASTERN NORTH CAROLINA NATIONAL WEATHER SERVICE NEWPORT/MOREHEAD CITY NC 1200 AM EST THU DEC 14 2017 NOTE: "FAIR" INDICATES FEW OR NO CLOUDS BELOW 12,000 FEET WITH NO SIGNIFICANT WEATHER AND/OR OBSTRUCTIONS TO VISIBILITY NCZ015>017-031-032-045>047-102-103-140600- NORTH COAST CITY SKY/WX TMP DP RH WIND PRES REMARKS EDENTON CLOUDY 42 25 50 SW12 29.78S ELIZABETH CITY CLOUDY 41 25 53 S16G22 29.78F KITTY HAWK CLOUDY 39 24 56 CALM 29.79F MANTEO CLOUDY 39 26 60 SW7 29.81F $$ NCZ045>047-081-094-103-104-140600- CENTRAL COAST CITY SKY/WX TMP DP RH WIND PRES REMARKS FRISCO PTCLDY 51 38 60 SW17G28 29.80F $$ NCZ095-097-098-100-101-140600- SOUTHERN COAST CITY SKY/WX TMP DP RH WIND PRES REMARKS BEAUFORT CLEAR 51 39 63 SW20 29.81F CEDAR ISLAND NOT AVBL JACKSONVILLE CLEAR 41 28 60 SW7 29.82S PINEY ISLAND N/A N/A N/A N/A W5 29.80F WILMINGTON CLEAR 40 30 67 SW7 29.84S $$ NCZ011>013-027>030-043-044-078>080-089-090>093-098-140600- COASTAL PLAIN CITY SKY/WX TMP DP RH WIND PRES REMARKS AHOSKIE CLEAR 36 18 48 S6 29.74F CLINTON PTCLDY 39 24 53 S5 29.80S ELIZABETHTOWN NOT AVBL GOLDSBORO CLOUDY 42 20 41 SW16 29.77F GREENVILLE CLOUDY 39 19 45 SW7 29.80F HAVELOCK CLEAR 39 32 76 SW9 29.82F KENANSVILLE PTCLDY 41 21 45 SW6 29.80F KINSTON NOT AVBL NEW BERN CLOUDY 38 26 62 SW3 29.83R RICHLANDS PTCLDY 39 25 57 S9 29.82F ROCKY MOUNT CLEAR 38 21 50 S8 29.76F WASHINGTON CLOUDY 41 19 41 SW9G16 29.78F WHITEVILLE CLEAR 40 25 55 SW8 29.82F $$ AMZ130-135-150-152-154-156-158-170-250-252-270-ANZ085-086-088-633-658-670-140600- MARINE OBSERVATIONS STATION/POSITION TIME TEMP WIND PRES WAVE SWELL AIR SEA DIR/SP/G HT/PER HT/PER (UTC) (F) (DEG/KT/KT) (MB) (FT/S) (FT/S) CHESAPEAKE LIGHT NOT AVBL 64 E VA BEACH 0450 46 58 230/ 19/ 23 1009.0 4/ 5 DUCK 0500 41 53 200/ 12/ 16 1008.3 2 E DUCK 0500 55 N/A 2/ 2 OREGON INLET 0500 44 42 230/ 13/ 16 1009.1 13E OREGON INLT 0448 57 N/A 3/ 8 2/ 8 HATTERAS CG 0500 51 50 240/ 15/ 21 1008.6 DIAMOND BUOY 0510 57 74 230/ 23/ 31 1009.2 CAPE LOOKOUT 0500 220/ 16/ 23 1009.4 BEAUFORT LAB 0500 52 50 220/ 11/ 16 1009.1 30 SE NEW RVR IN 0508 56 62 240/ 19/ 27 1009.8 30 SE NEW RVR IN 0500 63 N/A 6/ 5 27 SE WRIGHTSVLE 0408 56 64 230/ 23/ 33 1010.4 5 SE WRIGHTSVLE 0508 51 57 250/ 19/ 25 1009.9 225 S CAPE HAT 0450 63 74 240/ 17/ 21 1012.9 8/ 8 5/ 8 41 SE CHARLESTON 0510 73 250/ 23/ 29 1012.1 $$

USA.gov is the U.S. government's official web portal to all federal, state and local government web resources and services.